This demonstration page uses our WeatherBlox Daily Observations layout. Learn more.

Hourly Observations for April 24, 2017

Temp ( °F °C ) Dew Point ( °F °C ) Humidity (%) Winds ( mph kmh ) Pressure ( in mb ) Visibility ( mi km ) Precip ( " mm )
12:15 am 00:15 Clear 54 12.4 33 0.4 44 44 S 20 31 29.77 1008 10 16.0934 0 0
12:35 am 00:35 Clear 54 12.3 32 0 43 43 S 20 31 29.77 1008 10 16.0934 0 0
12:55 am 00:55 Clear 54 12.1 32 0 44 44 S 18 30 29.77 1008 10 16.0934 0 0
1:15 am 01:15 Clear 54 12 32 0 44 44 S 21 33 29.74 1007 10 16.0934 0 0
1:35 am 01:35 Clear 53 11.6 32 0 45 45 S 20 31 29.74 1007 10 16.0934 0 0
1:55 am 01:55 Clear 53 11.4 33 0.4 47 47 SSE 16 26 29.74 1007 10 16.0934 0 0
2:15 am 02:15 Clear 52 11.2 33 0.7 49 49 SSE 17 28 29.71 1006 10 16.0934 0 0
2:35 am 02:35 Clear 52 11.2 33 0.8 49 49 SSE 23 37 29.71 1006 10 16.0934 0 0
2:55 am 02:55 Clear 52 11.1 34 1 50 50 SSE 24 39 29.68 1005 10 16.0934 0 0
3:15 am 03:15 Clear 52 11.1 33 0.8 49 49 SSE 26 43 29.68 1005 10 16.0934 0 0
3:35 am 03:35 Clear 52 11.3 33 0.7 48 48 SSE 26 43 29.65 1004 10 16.0934 0 0
3:55 am 03:55 Clear 52 11.2 33 0.6 48 48 S 26 43 29.65 1004 10 16.0934 0 0
4:15 am 04:15 Clear 52 11.2 33 0.5 48 48 S 24 39 29.65 1004 10 16.0934 0 0
4:35 am 04:35 Clear 52 11.3 33 0.5 48 48 SSE 21 33 29.65 1004 10 16.0934 0 0
4:55 am 04:55 Clear 53 11.4 33 0.5 47 47 SSE 23 37 29.62 1003 10 16.0934 0 0
5:15 am 05:15 Clear 52 11.2 33 0.5 48 48 SSE 23 37 29.62 1003 10 16.0934 0 0
5:35 am 05:35 Clear 52 11 33 0.3 48 48 S 25 41 29.59 1002 10 16.0934 0 0
5:55 am 05:55 Clear 51 10.7 33 0.5 50 50 SSE 22 35 29.59 1002 10 16.0934 0 0
6:15 am 06:15 Clear 51 10.6 33 0.5 50 50 S 23 37 29.59 1002 10 16.0934 0 0
6:35 am 06:35 Clear 51 10.5 33 0.5 50 50 S 21 33 29.59 1002 10 16.0934 0 0
6:55 am 06:55 Sunny 50 10.2 33 0.6 52 52 S 22 35 29.56 1001 10 16.0934 0 0
7:15 am 07:15 Sunny 50 10.1 34 0.9 53 53 S 16 26 29.59 1002 10 16.0934 0 0
7:35 am 07:35 Sunny 50 10.1 34 1.1 54 54 S 16 26 29.56 1001 10 16.0934 0 0
7:55 am 07:55 Sunny 52 11.1 34 1.3 51 51 S 18 30 29.56 1001 10 16.0934 0 0
8:15 am 08:15 Sunny 53 11.8 34 1.3 49 49 S 22 35 29.59 1002 10 16.0934 0 0
8:35 am 08:35 Sunny 54 12.1 35 1.5 49 49 S 21 33 29.53 1000 10 16.0934 0 0
8:55 am 08:55 Sunny 54 12.3 35 1.6 48 48 S 20 31 29.53 1000 10 16.0934 0 0
9:15 am 09:15 Sunny 55 13 35 1.6 46 46 S 21 33 29.53 1000 10 16.0934 0 0
9:35 am 09:35 Sunny 56 13.6 35 1.6 44 44 S 25 41 29.53 1000 10 16.0934 0 0
9:55 am 09:55 Sunny 58 14.4 36 2 43 43 S 23 37 29.53 1000 10 16.0934 0 0
10:15 am 10:15 Sunny 57 13.9 36 2 45 45 S 17 28 29.53 1000 10 16.0934 0 0
10:35 am 10:35 Sunny 57 13.9 36 2.1 45 45 S 17 28 29.53 1000 10 16.0934 0 0
10:55 am 10:55 Sunny 58 14.5 36 2.3 44 44 S 15 24 29.53 1000 10 16.0934 0 0
11:15 am 11:15 Partly Cloudy 60 15.3 37 2.8 43 43 SSW 13 20 29.5 999 10 16.0934 0 0
11:35 am 11:35 Sunny 60 15.8 37 2.9 42 42 S 6 9 29.47 998 10 16.0934 0 0
11:55 am 11:55 Sunny 59 15.2 37 2.7 43 43 Calm 29.47 998 10 16.0934 0 0
12:15 pm 12:15 Sunny 62 16.9 39 3.9 42 42 SW 7 11 29.5 999 10 16.0934 0 0
12:35 pm 12:35 Sunny 61 16.3 37 2.8 41 41 Calm 29.47 998 10 16.0934 0 0
12:55 pm 12:55 Sunny 62 16.7 37 3 40 40 NE 3 6 29.47 998 10 16.0934 0 0
1:15 pm 13:15 Sunny 63 17.2 37 2.8 38 38 W 3 6 29.5 999 10 16.0934 0 0
1:35 pm 13:35 Sunny 64 17.7 38 3.3 38 38 WSW 5 7 29.47 998 10 16.0934 0 0
1:55 pm 13:55 Sunny 66 19.1 38 3.2 35 35 NNW 7 11 29.44 997 10 16.0934 0 0
2:15 pm 14:15 Sunny 67 19.7 38 3.1 33 33 Calm 29.44 997 10 16.0934 0 0
2:35 pm 14:35 Sunny 68 19.8 38 3.2 33 33 N 8 13 29.44 997 10 16.0934 0 0
2:55 pm 14:55 Sunny 69 20.5 38 3.6 33 33 NW 8 13 29.44 997 10 16.0934 0 0
3:15 pm 15:15 Sunny 70 21.2 38 3.5 31 31 NW 12 19 29.44 997 10 16.0934 0 0
3:35 pm 15:35 Sunny 70 21.2 39 3.8 32 32 NW 12 19 29.44 997 10 16.0934 0 0
3:55 pm 15:55 Sunny 70 21.2 38 3.5 31 31 NNW 7 11 29.44 997 10 16.0934 0 0
4:15 pm 16:15 Sunny 72 22.1 39 3.8 30 30 N 9 15 29.38 995 10 16.0934 0 0
4:35 pm 16:35 Sunny 72 22 40 4.5 32 32 N 7 11 29.44 997 10 16.0934 0 0
4:55 pm 16:55 Sunny 71 21.7 40 4.2 32 32 N 13 20 29.41 996 10 16.0934 0 0
5:15 pm 17:15 Sunny 72 22 40 4.5 32 32 NNE 5 7 29.38 995 10 16.0934 0 0
5:35 pm 17:35 Sunny 72 22.1 40 4.5 32 32 N 9 15 29.38 995 10 16.0934 0 0
5:55 pm 17:55 Sunny 73 22.7 41 5.2 32 32 N 6 9 29.41 996 10 16.0934 0 0
6:15 pm 18:15 Sunny 72 22.4 40 4.3 31 31 N 13 20 29.41 996 10 16.0934 0 0
6:35 pm 18:35 Sunny 71 21.9 39 4.1 31 31 N 10 17 29.44 997 10 16.0934 0 0
6:55 pm 18:55 Sunny 71 21.5 40 4.5 33 33 N 12 19 29.44 997 10 16.0934 0 0
7:15 pm 19:15 Sunny 70 21.3 40 4.5 33 33 N 13 20 29.44 997 10 16.0934 0 0
7:35 pm 19:35 Sunny 69 20.5 40 4.7 36 36 N 13 20 29.44 997 10 16.0934 0 0
7:55 pm 19:55 Sunny 67 19.6 41 5 38 38 N 13 20 29.44 997 10 16.0934 0 0
8:15 pm 20:15 Sunny 65 18.2 41 5.1 42 42 N 15 24 29.47 998 10 16.0934 0 0
8:35 pm 20:35 Clear 62 16.6 42 5.3 47 47 NNE 13 20 29.47 998 10 16.0934 0 0
8:55 pm 20:55 Clear 60 15.7 41 5.1 50 50 NNE 13 20 29.5 999 10 16.0934 0 0
9:15 pm 21:15 Clear 59 15 41 5.2 52 52 NNE 14 22 29.47 998 10 16.0934 0 0
9:35 pm 21:35 Clear 59 15 41 5 51 51 NNE 14 22 29.53 1000 10 16.0934 0 0
9:55 pm 21:55 Clear 58 14.7 41 5 52 52 NNE 15 24 29.5 999 10 16.0934 0 0
10:15 pm 22:15 Clear 58 14.5 40 4.7 52 52 NNE 13 20 29.53 1000 10 16.0934 0 0
10:35 pm 22:35 Clear 58 14.2 40 4.7 53 53 NNE 14 22 29.53 1000 10 16.0934 0 0
10:55 pm 22:55 Clear 57 14.1 40 4.5 53 53 NE 10 17 29.5 999 10 16.0934 0 0
11:15 pm 23:15 Clear 57 13.7 40 4.5 54 54 NE 15 24 29.5 999 10 16.0934 0 0
11:35 pm 23:35 Clear 56 13.5 40 4.5 55 55 NE 13 20 29.5 999 10 16.0934 0 0
11:55 pm 23:55 Clear 56 13.3 40 4.2 54 54 NNE 13 20 29.53 1000 10 16.0934 0 0

Powered by AerisWeather